Showing default

FLOCK 4Q 27, 58282

Orbit data source: Space-Track

FLOCK 4Q 27, 58282 is a payload satellite owned by Planet (US) in SSO that was launched on Sat, 11 Nov 2023 UTC via an FALCON 9 launch vehicle from the Air Force Western Test Range (AFWTR). Payload-class satellites include a variety of spacecraft equipped with specific instruments for various scientific and technological missions. These include communications satellites like Starlink; space stations such as the ISS; scientific satellites like the Hubble; Earth observation satellites from companies like Planet Labs, Umbra, and HawkEye 360; GPS; miniature CubeSats for education and research; and military/defense satellites.

Not visible in the next 10 days
Identifier
58282, 2023-174AC
Orbit
SSO
Country
Flag of USUS
Related business
Manufacturer
Planet
Mission
Operational Commercial Imaging
Bus & Motor
CUBESAT 3U, Unknown motor
Mass
5.7 kg wet, 5.7 kg dry
Launch date (UTC)
2023-11-11 (2 years ago)
Launch vehicle
FALCON 9
Launch site
Air Force Western Test Range (AFWTR)
Object type
Payload
Rocket body
Debris
Shape & HBR
Box + 2 Pan, 1.0 m
Radar Cross Section
0.072 m², Medium (>0.1 m² and < 1m²)

Expand to show TLE details & history
Last TLE update: 7 hours ago

TLE from 7 hours ago
0 FLOCK 4Q 27
1 58282U 23174AC  26036.95061933  .00039605  00000-0  78589-3 0  9998
2 58282  97.3898 124.1824 0005271 253.0895 106.9777 15.46896385125415
Epoch: 2026-02-05T22:48Z
TLE epoch observation values (Epoch: 2026-02-05T22:48:53.510Z)
Latitude
-0°
Longitude
5.86395°
Altitude
429.988 km
Speed
7.653 km/s
True Right ascension
08h 16m 43s
True Declination
0° 00' 00"
Sunlit
Object was in full shadow at epoch
Visualization orbit readout
Latitude
Unknown
Longitude
Unknown
Altitude
Unknown
Speed
Unknown
Apparent Right ascension
Unknown
Apparent Declination
Unknown
Sunlit
N/A
Visualization observer readout
Local Sidereal Time
07:37:16
Azimuth
Unknown
Elevation
Unknown
Doppler factor
Unknown
Orbital elements
Apogee altitude
426.326 km
Perigee altitude
419.156 km
Semi-major axis
6,800.878 km
Eccentricity
0.00053
Inclination
97.3898°
RAAN
124.1824°
Arg. of periapsis
253.0895°
True anomaly
107.03546°
Mean anomaly
106.9777°
Eccentric anomaly
107.00658°
Mean motion
3.86986 °/min
Orbital period
93.03 mins
BSTAR
0.00078589
Loading maneuver chart data...
Computing Atmospheric mass density...
Loading historical data...
Loading historical data...
Loading historical data...
Loading historical data...
Loading historical data...
Loading historical data...
Loading historical data...

Documentation

Showing up to 5 results
|